Location: Hurstbourne Priors
(51.2000°N, 1.3667°W)
Time: 01:47:21
(UTC+00:00)

Vanguard 2 - All Passes

Search period start: 21 April 2021 00:00
Search period end: 01 May 2021 00:00
Orbit: 552 x 2938 km, 32.9° (Epoch: 20 April)

Date Brightness Start Highest point End Pass type
(mag) Time Alt. Az. Time Alt. Az. Time Alt. Az.
21 Apr - 10:30:43 10° S 10:40:31 19° SSE 10:48:50 10° ESE daylight
21 Apr - 12:37:32 10° SW 12:49:50 29° S 12:58:49 10° ESE daylight
21 Apr - 14:48:09 10° WSW 14:58:39 28° SSW 15:05:56 10° SE daylight
21 Apr - 17:01:05 10° WSW 17:06:07 15° SW 17:10:10 10° S daylight
22 Apr - 10:46:11 10° SSW 10:57:48 23° SSE 11:07:21 10° ESE daylight
22 Apr - 12:54:25 10° SW 13:07:13 31° S 13:16:26 10° ESE daylight
22 Apr - 15:05:41 10° WSW 15:15:55 27° SSW 15:23:06 10° SE daylight
22 Apr - 17:20:06 10° WSW 17:23:05 12° SW 17:25:43 10° SSW daylight
23 Apr - 08:59:17 10° SSE 09:05:53 13° SE 09:12:05 10° ESE daylight
23 Apr - 11:02:14 10° SSW 11:15:07 27° SSE 11:25:27 10° ESE daylight
23 Apr - 13:11:31 10° SW 13:24:36 33° S 13:33:55 10° ESE daylight
23 Apr - 15:23:21 10° WSW 15:33:07 25° SSW 15:40:05 10° SSE daylight
24 Apr - 09:13:08 10° S 09:23:00 18° SE 09:31:59 10° ESE daylight
24 Apr - 11:18:42 10° SW 11:32:28 31° SSE 11:43:18 10° ESE daylight
24 Apr - 13:28:47 10° WSW 13:41:57 33° S 13:51:18 10° SE daylight
24 Apr - 15:41:13 10° WSW 15:50:13 22° SSW 15:56:51 10° SSE daylight
25 Apr - 09:28:19 10° SSW 09:40:09 22° SSE 09:50:46 10° ESE daylight
25 Apr - 11:35:27 10° SW 11:49:49 34° S 12:00:59 10° ESE daylight
25 Apr - 13:46:13 10° WSW 13:59:15 33° SSW 14:08:32 10° SE daylight
25 Apr - 15:59:20 10° WSW 16:07:14 19° SW 16:13:18 10° S daylight
26 Apr - 07:44:19 10° SSE 07:48:24 11° SE 07:52:26 10° ESE daylight
26 Apr - 09:44:10 10° SSW 09:57:21 27° SSE 10:09:01 10° ESE daylight
26 Apr - 11:52:27 10° SW 12:07:11 36° S 12:18:32 10° ESE daylight
26 Apr - 14:03:46 10° WSW 14:16:30 31° SSW 14:25:39 10° SE daylight
26 Apr - 16:17:55 10° WSW 16:24:09 15° SW 16:29:14 10° S daylight
27 Apr - 07:56:43 10° S 08:05:20 16° SE 08:13:49 10° ESE daylight
27 Apr - 10:00:28 10° SSW 10:14:35 31° SSE 10:26:59 10° ESE daylight
27 Apr - 12:09:38 10° WSW 12:24:32 37° S 12:35:58 10° ESE daylight
27 Apr - 14:21:28 10° WSW 14:33:40 29° SSW 14:42:35 10° SSE daylight
27 Apr - 16:37:40 10° WSW 16:40:58 11° SW 16:43:56 10° SSW daylight
28 Apr - 08:11:24 10° S 08:22:19 20° SE 08:33:03 10° ESE daylight
28 Apr - 10:17:05 10° SW 10:31:52 34° SSE 10:44:45 10° ESE daylight
28 Apr - 12:26:57 10° WSW 12:41:52 37° S 12:53:17 10° SE daylight
28 Apr - 14:39:20 10° WSW 14:50:45 26° SSW 14:59:18 10° SSE daylight
29 Apr - 08:26:59 10° SSW 08:39:22 25° SSE 08:51:34 10° ESE daylight
29 Apr - 10:33:59 10° SW 10:49:11 37° S 11:02:21 10° ESE daylight
29 Apr - 12:44:24 10° WSW 12:59:10 36° SSW 13:10:30 10° SE daylight
29 Apr - 14:57:26 10° WSW 15:07:44 22° SW 15:15:43 10° S daylight
30 Apr - 06:42:06 10° SSE 06:47:47 12° SE 06:53:39 10° ESE daylight
30 Apr - 08:43:05 10° SSW 08:56:28 29° SSE 09:09:42 10° ESE daylight
30 Apr - 10:51:03 10° SW 11:06:31 39° S 11:19:53 10° ESE daylight
30 Apr - 13:01:59 10° WSW 13:16:24 34° SSW 13:27:34 10° SE daylight
30 Apr - 15:15:55 10° WSW 15:24:37 18° SW 15:31:41 10° S daylight
